Regional Weather Roundup
Issued by NWS Goodland, KS

Home | Current Version | Previous Version | Graphics & Text | Print | Product List | Glossary On
Versions: 1 2 3 4 5 6 7 8 9 10 11 12 13 14 15 16 17 18 19 20 21 22 23 24 25 26 27 28 29 30 31 32 33 34 35 36 37 38 39 40 41 42 43 44 45 46 47 48 49 50
000
ASUS43 KGLD 060108
RWRGLD

GOODLAND FORECAST AREA HOURLY WEATHER ROUNDUP
NATIONAL WEATHER SERVICE GOODLAND KS
600 PM MST MON DEC 05 2016

...OFFICIAL OBSERVATIONS...

CITY           SKY/WX    TMP DP  RH WIND       PRES   REMARKS
GOODLAND KS    CLEAR     33  12  41 N23G38    29.80R
HILL CITY KS   CLEAR     45  27  49 NW9       29.72R
IMPERIAL NEB   CLOUDY    32  19  58 N23       29.85R WCI  19
MCCOOK NEB     CLOUDY    38  25  59 N31G39    29.79R
AKRON CO       MOCLDY    24  10  55 N20       29.84R WCI  10
BURLINGTON CO  PTCLDY    32   9  38 N26G38    29.81R WCI  18
LIMON CO       CLEAR     25  -2  31 N17G30    29.81R WCI  12
$$

...UNOFFICIAL OBSERVATIONS...

CITY           SKY/WX    TMP DP  RH WIND       PRES   REMARKS
COLBY KS       CLEAR     37  19  48 NW20G30   29.79R
LENORA KS        N/A     43  32  65 MISG        N/A
NORTON KS      CLOUDY    48  18  29 NW15      29.73R
SHARON SPRINGS   N/A     37  11  34 NW26G35     N/A
TRENTON NEB      N/A     33  32  96 N17         N/A
KIT CARSON CO    N/A     32  11  41 MISG        N/A
YUMA CO        FAIR      27  10  50 NW14      29.85R WCI  15
$$



USA.gov is the U.S. government's official web portal to all federal, state and local government web resources and services.